Tracking 23764 objects as of 17-Oct-2021
HD Live streaming from Space Station
objects crossing your sky now

COSMOS 1761

Track COSMOS 1761 now!
COSMOS 1761 is classified as:


NORAD ID: 16849
Int'l Code: 1986-050A
Perigee: 5,327.0 km
Apogee: 35,055.3 km
Inclination: 69.7 °
Period: 718.1 minutes
Semi major axis: 26562 km
RCS: 12.1379 m2 (large)
Launch date: July 5, 1986
Source: Commonwealth of Independent States (former USSR) (CIS)
Launch site: PLESETSK MISSILE AND SPACE COMPLEX (PKMTR)
aabbcc
Your satellite tracking list
Your tracking list is empty




NASA's NSSDC Master Catalog

Two Line Element Set (TLE):
1 16849U 86050A   21289.35813171  .00000695  00000-0  00000-0 0  9998
2 16849  69.6837 134.3206 5595985  48.7512  77.4057  2.00543048258394
Source of the keplerian elements: AFSPC